RH
58 48 51 64 91 87 33 29 20 28 25 26 25 29 40 40 40 66 53 43 44 52 61 64 77 73 72 72 74 73 75 72 74 74 76 77 79 77 76 78 78 77 75 75 74 78 78 77 75
38 39 57 86 85 53 45 34 40 27 33 27 27 30 38 46 36 40 46 42 43 48 55 61 79 77 75 75 73 71 73 72 74 74 76 77 77 77 74 74 75 76 75 74 73 75 74 75 75
53 42 97 94 69 48 38 26 25 27 30 33 31 27 32 41 32 36 47 41 43 48 56 68 75 75 74 72 74 75 74 75 75 75 75 77 76 75 73 73 73 76 74 72 70 72 75 76 75
57 60 77 88 59 28 32 26 23 30 29 29 27 37 32 32 33 31 33 35 48 50 58 73 76 74 74 76 75 75 75 77 76 75 74 74 74 75 74 74 73 76 72 74 73 73 72 70 72
53 76 85 71 44 27 26 23 30 29 31 30 31 40 39 32 29 29 33 37 44 49 59 66 79 78 77 77 75 76 76 75 74 74 74 73 74 75 76 76 75 76 74 75 75 72 70 71 69
73 91 90 43 38 29 30 27 28 31 27 30 34 38 41 31 30 28 27 41 33 45 57 63 76 78 78 76 76 76 75 73 73 72 73 73 74 75 76 76 74 75 75 77 77 73 72 70 67
75 90 63 43 37 45 32 29 26 23 26 30 30 43 38 31 28 26 31 39 44 41 51 61 66 72 74 76 76 75 74 74 74 73 74 74 74 73 74 77 76 75 74 76 74 73 73 71 68
53 91 72 40 44 41 29 22 20 23 27 23 27 42 42 31 27 27 31 36 39 37 42 54 66 63 65 65 76 75 75 72 70 70 70 70 68 69 73 78 77 75 73 72 72 72 73 75 73
32 78 87 56 50 36 25 26 22 22 24 24 26 30 29 26 25 28 32 32 42 38 41 45 46 60 65 68 69 76 71 69 67 67 67 69 60 61 65 75 76 72 71 70 70 70 72 76 76
40 94 85 53 60 34 32 26 23 24 26 26 27 28 27 27 28 30 33 40 37 34 34 34 39 46 52 41 71 70 64 61 65 71 74 83 78 66 58 66 71 70 68 69 70 71 72 72 53
32 86 38 33 28 27 31 29 31 28 29 26 33 32 29 29 30 31 29 32 32 30 35 32 34 45 37 54 63 62 62 66 70 89 91 85 72 67 61 71 64 72 70 60 62 66 65 62 62
38 29 34 48 26 30 37 29 42 45 27 23 27 28 28 29 28 29 30 29 30 31 32 32 39 47 54 75 85 63 72 84 75 74 80 87 69 77 68 63 67 72 66 61 65 58 56 48 47
47 29 29 28 32 35 31 37 38 32 25 23 25 27 27 27 27 26 27 27 30 33 39 41 56 69 69 76 74 94 95 90 63 81 78 86 70 77 65 65 60 62 66 59 63 61 62 56 48
44 34 32 34 34 30 36 36 40 32 25 25 27 26 25 25 25 26 27 30 33 34 41 40 53 60 61 80 79 80 87 82 73 81 72 77 77 82 74 68 64 62 62 57 62 63 63 62 47
61 44 30 29 27 28 34 48 46 31 26 28 29 25 23 24 24 27 27 33 32 34 39 48 51 51 67 68 69 71 56 55 73 61 71 70 68 72 69 65 61 60 69 68 67 71 59 58 41
34 41 39 69 26 32 31 68 46 31 26 29 28 24 24 24 24 26 28 32 36 35 51 49 39 50 61 68 70 84 73 61 61 57 62 66 65 68 74 63 61 62 65 65 66 69 67 60 55
29 48 60 51 28 31 27 62 68 31 30 30 30 26 26 25 25 28 26 27 33 42 53 53 55 51 59 70 78 71 69 60 52 54 58 68 62 60 71 58 64 71 64 65 58 60 61 59 64
35 28 31 42 34 36 28 41 47 32 32 31 29 27 28 28 25 24 25 26 30 43 51 55 53 64 72 65 78 69 63 66 47 52 54 64 60 62 70 62 66 70 69 64 71 76 66 67 59
27 29 27 29 38 36 25 40 44 35 31 37 30 27 28 28 26 25 24 26 30 42 53 59 66 73 67 65 75 70 69 68 67 60 64 68 64 60 70 63 65 70 74 72 67 63 63 68 66
20 24 24 25 20 19 21 39 33 31 29 35 32 27 26 26 28 30 29 29 32 45 54 62 69 71 69 63 72 71 71 62 65 61 65 67 64 66 64 71 67 67 72 72 67 75 77 67 66
14 18 20 20 20 18 18 34 30 27 28 32 32 30 24 25 27 33 33 35 33 47 54 61 71 71 71 67 66 73 74 75 73 72 62 67 68 64 68 61 72 72 74 72 75 71 73 72 72
16 12 16 20 24 28 18 21 19 28 29 33 34 32 27 24 26 33 34 37 35 44 48 60 68 72 68 73 70 75 63 66 68 64 59 61 64 63 61 64 68 71 74 78 74 63 75 76 73
14 11 14 17 22 20 20 25 21 21 31 34 34 33 31 26 23 28 30 36 34 40 44 57 68 72 70 73 71 68 72 65 56 63 70 70 74 67 55 64 67 73 73 72 72 78 78 78 74
10 12 14 21 18 27 18 18 22 23 25 27 29 32 32 28 25 26 29 34 35 37 41 55 69 77 74 72 73 78 75 72 58 64 63 60 60 63 64 66 75 78 77 73 72 74 76 81 82
10 12 20 27 30 27 15 15 27 21 21 23 26 29 31 32 28 25 31 34 37 37 41 51 69 75 72 70 69 74 77 76 77 71 59 62 57 58 72 76 80 76 77 76 77 81 81 82 81
11 11 18 30 27 21 17 19 15 16 15 15 22 23 31 31 29 25 26 33 35 35 40 48 68 74 72 70 72 75 78 71 69 67 59 58 56 56 74 76 76 75 77 76 82 79 78 77 79
12 15 11 15 14 17 15 14 12 12 13 14 16 21 26 32 28 26 24 28 34 34 38 43 65 69 70 68 72 76 76 77 72 73 74 66 70 68 72 73 74 73 73 76 82 78 80 79 79
9 11 15 14 28 31 21 21 17 19 16 13 15 23 24 23 23 28 24 28 29 30 33 38 53 65 66 65 68 70 73 75 76 80 76 71 71 67 75 72 70 72 72 74 79 76 78 82 79
11 12 13 11 14 22 26 20 16 21 18 15 15 19 24 24 21 22 23 24 27 27 28 33 39 58 63 65 67 71 70 72 74 72 74 72 71 73 76 76 74 74 73 74 80 80 75 79 82
7 11 11 16 23 15 17 15 11 15 14 17 14 17 18 19 20 20 22 25 26 28 28 32 35 49 58 64 68 68 68 70 67 72 71 72 74 74 75 75 75 75 75 75 77 75 64 77 80
Wind_Speed
9 11 9 5 4 5 17 14 14 17 16 16 23 18 20 14 11 15 10 18 20 18 14 12 11 12 13 13 12 11 11 11 12 12 13 12 12 14 13 14 16 17 17 17 17 18 17 16 14
11 8 3 3 5 3 3 22 3 18 21 19 17 25 24 25 23 22 18 19 18 17 14 12 8 12 11 12 11 10 11 11 12 12 12 13 12 12 13 14 14 15 15 15 16 17 16 14 11
12 2 4 4 3 9 7 16 15 19 14 12 16 20 16 18 17 21 20 19 19 16 16 13 12 12 12 11 10 12 11 12 12 12 13 13 13 14 14 14 13 14 13 14 15 14 12 11 9
3 3 6 3 3 21 14 13 16 20 16 18 20 17 20 22 22 19 20 19 16 17 17 13 14 13 12 12 12 12 12 12 11 12 13 13 13 13 14 14 13 13 13 13 12 12 11 9 7
6 3 4 6 10 20 18 10 17 13 14 21 23 19 21 21 20 16 22 20 21 17 15 13 13 14 13 13 13 13 12 12 12 14 13 13 12 11 12 13 14 13 12 12 11 12 11 10 6
4 6 3 10 18 17 15 7 10 15 18 22 21 21 20 18 18 16 15 19 19 19 16 14 14 14 14 15 14 14 12 13 12 13 12 12 12 12 11 13 13 12 13 11 12 11 10 7 3
3 1 2 13 15 6 16 6 2 14 22 19 22 22 16 18 16 16 18 16 23 19 16 13 13 13 14 14 14 13 13 12 12 11 12 11 12 12 13 12 12 12 12 10 10 9 8 5 1
7 5 10 15 9 13 6 12 6 16 17 20 21 15 18 17 18 16 17 15 15 17 17 14 11 12 12 11 13 13 12 12 10 9 10 11 11 12 12 11 11 11 10 8 8 8 8 9 8
12 6 8 6 2 10 11 15 14 13 13 10 19 22 21 19 18 15 18 13 13 12 16 16 14 10 11 11 10 11 12 11 9 8 9 10 7 9 11 12 10 9 7 6 5 4 5 5 7
2 5 11 9 9 13 8 16 16 11 13 12 21 23 21 19 16 17 15 15 13 13 15 14 15 14 12 10 9 9 8 6 5 4 7 4 3 7 10 10 10 8 6 6 5 6 6 7 4
5 3 11 13 10 13 15 15 6 9 16 17 21 22 21 19 16 17 14 16 15 13 11 14 11 11 13 10 5 5 5 5 5 6 3 4 5 8 7 5 5 4 8 4 6 7 6 9 7
6 4 13 14 8 12 13 3 17 4 16 18 21 20 20 19 16 16 15 15 15 12 15 16 10 10 10 5 1 4 2 2 7 8 5 4 3 4 6 5 6 5 5 4 4 3 4 4 4
3 8 2 10 12 11 9 10 12 8 13 19 20 19 18 17 16 14 15 14 14 11 10 15 12 6 12 6 3 3 5 4 8 6 3 4 3 2 5 5 6 5 5 4 3 2 4 2 4
8 14 4 4 14 9 11 11 9 9 14 20 19 18 17 17 16 14 15 16 13 11 14 13 12 7 8 5 5 8 6 5 6 5 6 6 5 3 3 4 4 5 4 2 4 1 3 4 3
5 16 14 13 12 9 12 5 11 13 16 19 17 16 17 17 17 15 15 14 14 12 14 11 11 8 6 4 4 4 10 7 6 5 7 7 6 5 4 2 4 3 5 5 1 4 4 3 4
16 10 5 12 9 7 9 5 13 16 17 18 16 16 16 16 17 15 14 12 14 13 14 12 12 12 9 6 3 2 2 6 7 7 5 7 3 4 4 4 4 4 4 4 5 5 5 1 4
9 7 4 1 16 10 10 9 4 17 17 17 15 16 15 16 15 14 16 14 14 13 13 10 11 13 8 7 3 4 8 6 7 9 8 6 6 5 2 4 4 4 4 4 5 2 2 1 3
10 13 14 8 9 17 12 14 19 19 20 19 18 17 16 17 17 16 16 15 15 14 13 10 10 11 9 5 3 4 2 2 6 8 9 9 5 4 3 6 4 4 4 1 3 5 4 3 2
4 14 18 16 11 15 11 18 20 20 20 20 20 18 18 18 17 18 17 15 15 15 14 9 9 11 7 6 3 3 4 3 6 7 9 7 6 5 3 4 4 4 3 4 4 1 2 4 3
15 15 21 6 13 12 6 4 22 23 19 23 21 20 20 19 19 17 16 16 16 16 14 12 11 11 8 6 3 3 2 4 6 7 6 7 8 5 5 4 5 3 3 5 3 2 3 4 3
23 18 20 16 8 8 11 16 25 21 19 21 20 18 20 20 21 18 17 17 16 17 15 13 13 11 9 8 5 4 1 4 3 3 5 5 7 6 5 2 2 4 1 4 4 3 3 3 2
22 15 18 7 9 10 17 12 15 19 18 25 22 21 19 21 20 20 18 17 17 17 16 15 11 13 10 7 6 7 5 7 6 7 7 6 6 5 5 3 3 2 3 5 4 2 1 1 3
21 23 19 11 13 12 13 10 15 21 20 24 24 25 24 19 21 22 22 18 18 18 16 15 12 13 10 7 5 5 5 5 5 5 11 8 6 7 8 5 3 3 2 3 4 4 1 3 2
23 23 14 12 18 11 21 14 16 18 21 23 27 27 26 24 21 22 21 19 16 18 17 17 15 13 11 9 6 7 9 4 6 8 8 8 7 4 6 8 5 4 4 3 0 1 2 2 3
24 21 14 13 12 13 19 18 7 4 10 18 19 26 25 17 20 21 23 21 18 19 19 18 18 14 13 11 9 9 7 6 5 11 7 7 9 8 7 8 6 5 4 4 3 4 3 4 2
25 23 16 18 15 16 20 17 11 19 19 17 24 24 26 24 22 21 24 21 20 18 18 19 18 16 15 14 11 9 7 5 4 6 5 6 4 10 11 7 7 6 7 5 6 3 4 4 3
25 23 22 26 22 15 13 20 16 13 14 13 20 22 26 30 25 24 25 23 21 18 19 19 20 18 17 15 11 10 7 7 4 6 3 4 1 7 11 9 8 7 6 7 6 4 6 4 5
27 18 21 16 21 14 21 10 11 14 12 14 13 20 21 19 23 20 22 23 22 20 17 18 19 18 18 17 13 11 11 9 7 4 5 6 4 6 11 10 8 6 6 6 6 5 6 6 4
16 21 23 18 19 16 16 13 19 14 14 13 14 19 22 21 19 20 22 23 23 22 19 19 18 19 17 15 14 13 13 12 9 7 5 7 5 3 8 6 6 8 7 7 6 6 4 6 6
27 24 27 17 18 16 16 15 9 15 13 9 13 13 17 20 20 17 18 23 23 22 20 20 19 20 18 15 13 14 13 13 13 11 9 6 5 4 6 7 7 6 7 6 7 8 8 11 11
Wind_Direction
193 216 225 246 260 221 101 98 101 79 76 67 82 68 67 29 58 104 128 121 120 111 123 128 124 116 111 107 99 97 91 94 93 96 101 99 95 91 86 90 91 91 93 92 95 92 89 88 84
217 208 313 266 242 70 49 89 272 86 53 75 73 80 73 81 92 118 113 112 112 126 115 119 122 116 117 113 109 101 94 91 89 93 98 100 95 97 97 89 92 95 96 94 91 87 88 89 87
251 184 358 306 269 124 139 96 94 89 83 66 78 68 89 118 111 106 109 115 117 120 105 116 122 125 114 111 110 104 103 102 101 95 96 98 100 96 102 99 99 100 95 93 93 93 85 84 82
253 197 225 249 300 97 101 104 116 116 86 100 103 81 78 88 108 122 123 126 117 105 107 113 125 124 114 111 108 111 109 102 101 105 105 101 101 100 104 105 104 100 94 89 89 86 79 91 96
260 274 249 221 183 79 89 82 91 84 107 97 101 107 98 104 115 127 123 123 117 110 113 118 119 121 122 117 117 115 110 107 107 104 99 100 97 96 96 99 101 98 95 87 91 88 91 88 82
246 100 250 86 90 94 93 90 94 139 98 102 110 106 107 129 127 142 134 120 124 117 116 122 120 119 122 123 121 118 119 114 110 112 111 111 108 103 100 101 99 102 97 92 96 98 96 94 86
250 147 297 113 102 116 102 112 176 107 112 129 110 114 129 132 141 128 113 149 122 128 119 130 130 122 123 124 124 126 122 118 117 121 121 121 111 105 100 99 102 106 104 104 107 107 114 124 163
254 120 314 122 124 100 121 96 92 100 104 117 134 140 147 141 129 136 116 122 133 133 141 125 140 139 133 133 130 129 129 121 123 131 133 130 123 123 117 116 110 114 118 123 131 139 152 180 192
287 62 331 303 89 141 91 98 78 85 123 105 94 142 131 141 149 127 119 117 123 142 138 138 146 160 128 137 138 138 133 133 141 155 160 161 149 159 149 109 126 124 128 155 164 157 196 234 262
233 116 234 129 235 105 105 104 127 111 119 123 118 117 140 139 154 135 146 133 162 132 145 129 153 149 154 137 165 135 146 157 170 165 165 209 123 149 128 130 132 134 167 199 200 212 230 253 229
257 209 197 129 114 117 135 113 38 128 128 126 131 138 146 150 150 148 146 154 139 158 128 144 137 161 140 136 167 149 165 161 125 68 241 212 138 131 131 137 146 163 208 212 200 197 231 225 244
298 183 55 313 126 89 89 61 100 50 116 132 137 148 149 158 153 159 148 147 144 156 151 125 129 116 109 70 119 199 78 107 151 160 176 95 133 156 139 176 167 182 204 201 212 226 184 174 46
254 257 201 139 103 104 126 87 89 97 118 132 139 156 157 160 159 159 148 148 141 148 114 115 104 93 115 134 205 49 73 271 106 113 131 123 155 110 183 157 170 187 196 210 141 72 310 207 162
216 275 194 198 141 151 120 132 98 126 133 138 146 163 167 157 159 149 156 151 146 151 124 120 120 118 112 147 183 133 168 212 131 148 192 187 182 186 246 169 181 165 186 161 111 230 205 239 231
181 248 202 165 157 153 91 48 147 146 147 142 159 170 171 160 159 155 159 146 158 155 132 134 131 146 135 157 187 145 175 162 120 133 89 90 119 166 148 166 121 153 69 84 157 259 256 319 137
213 200 210 340 190 166 149 173 228 160 157 149 186 174 169 167 158 163 157 155 143 160 131 161 160 150 180 168 191 102 255 144 159 128 125 135 182 187 212 171 138 120 162 193 197 222 277 19 110
254 127 151 232 303 178 183 117 259 170 165 165 201 177 168 172 160 161 161 169 149 144 138 188 148 155 164 172 92 209 219 167 143 141 139 147 178 217 298 165 132 174 208 228 224 162 61 186 292
249 241 190 170 225 227 178 180 188 177 183 172 205 180 180 173 171 166 169 171 156 140 146 196 152 144 148 180 201 232 140 266 159 141 142 168 178 214 263 117 157 209 232 217 47 33 31 276 53
145 307 254 191 209 252 219 152 176 184 194 174 198 183 188 179 171 168 173 167 160 151 162 170 156 144 150 186 174 161 222 49 90 110 152 165 159 199 234 150 192 239 232 91 88 118 266 311 56
214 246 267 209 187 232 200 98 190 179 185 174 192 185 191 182 173 169 170 165 167 158 168 159 144 152 186 191 178 185 165 182 129 139 155 141 169 172 218 171 198 175 122 115 99 293 316 247 87
257 220 264 192 143 235 234 205 213 179 177 173 191 198 194 188 177 169 171 169 171 161 169 165 156 165 203 189 190 123 167 108 95 146 168 173 148 182 245 179 103 128 226 150 159 231 289 339 37
253 230 241 154 208 252 217 243 213 169 172 173 188 194 206 192 178 167 177 173 172 162 170 165 167 170 211 220 158 184 177 164 173 201 151 145 142 191 152 188 155 290 18 126 190 180 18 330 330
252 263 244 275 215 246 216 232 199 180 178 176 186 189 199 198 188 171 181 179 177 167 170 163 173 173 208 204 174 188 190 214 170 126 142 156 176 199 175 172 167 220 248 209 93 92 43 341 305
255 258 255 263 276 262 257 219 286 180 191 185 186 185 188 196 187 175 175 175 189 170 172 164 172 179 206 210 199 200 217 241 163 153 158 165 164 203 183 162 168 191 246 119 216 159 183 270 344
227 245 245 214 249 246 248 245 175 158 156 183 183 175 181 185 193 179 171 174 188 182 175 168 170 181 192 198 192 225 227 226 254 151 166 184 178 183 186 159 166 191 193 156 206 165 261 207 241
231 229 243 236 221 227 227 244 237 181 175 187 178 172 178 191 182 195 173 172 183 190 181 170 172 178 186 190 193 210 220 238 244 174 174 207 198 182 161 151 173 215 173 190 168 176 199 233 206
240 227 234 255 256 267 252 212 219 200 165 175 175 167 179 184 193 186 176 174 179 192 187 175 172 180 184 195 188 197 216 236 240 197 217 279 183 135 154 168 173 185 202 188 178 205 186 214 186
233 242 221 240 254 248 274 233 247 153 179 194 171 164 176 184 185 186 178 174 174 182 186 181 172 183 186 191 189 191 201 214 241 285 213 232 257 144 164 164 178 181 211 189 195 227 202 182 204
210 234 252 254 236 254 245 259 193 160 216 189 185 173 172 178 192 185 177 174 175 177 185 183 186 180 187 193 194 193 191 204 213 221 228 233 236 177 150 172 188 188 204 205 187 221 267 197 200
229 219 237 246 236 248 263 263 178 167 166 85 211 164 174 178 183 189 185 171 174 177 184 185 191 180 185 188 195 193 192 198 207 207 225 205 209 209 186 179 198 210 206 204 205 208 234 190 210